Location: Delia
(51.6321°N, 112.3740°W)
Time: 21:10:00
(UTC+00:00)

Envisat - Pass Details

Date: 06 December 2021
Orbit: 764 x 766 km, 98.2° (Epoch: 26 January)

Event Time Altitude Azimuth Distance (km) Brightness Sun altitude
Rises 10:57:42 0° 30° (NNE) 3,246 6.7 -39.4°
Reaches altitude 10° 11:01:29 10° 58° (ENE) 2,313 6.1 -38.9°
Maximum altitude 11:03:41 13° 84° (E) 2,123 5.9 -38.5°
Drops below altitude 10° 11:05:53 10° 110° (ESE) 2,304 6.0 -38.2°
Sets 11:09:37 0° 139° (SE) 3,223 6.6 -37.6°
